Location: Asheville, NC
(35.6000°N, 82.5500°W)
Time: 22:47:09
(UTC-04:00)

CUTE 1.7 + AOD 2 - Pass Details

Date: 12 January 2018
Orbit: 595 x 612 km, 97.5° (Epoch: 26 April)

Event Time Altitude Azimuth Distance (km) Brightness Sun altitude
Rises 06:21:17 0° 34° (NE) 2,848 ? -15.7°
Reaches altitude 10° 06:24:24 10° 59° (ENE) 1,937 ? -15.1°
Maximum altitude 06:26:41 14° 93° (E) 1,665 ? -14.7°
Drops below altitude 10° 06:28:58 10° 126° (SE) 1,925 ? -14.2°
Sets 06:32:02 0° 151° (SSE) 2,819 ? -13.6°
